Location: Darmstadt
(49.8706°N, 8.6494°E)
Time: 05:54:36
(UTC+01:00)

USA 281 - Pass Details

Date: 31 October 2020
Orbit: 1078 x 1081 km, 106.0° (Epoch: 28 November)

Event Time Altitude Azimuth Distance (km) Brightness Sun altitude
Rises 17:50:13 0° 155° (SSE) 3,863 6.0 -8.0°
Reaches altitude 10° 17:52:43 10° 156° (SSE) 2,912 5.4 -8.4°
Maximum altitude 17:59:16 80° 243° (WSW) 1,100 3.4 -9.4°
Drops below altitude 10° 18:05:53 10° 332° (NNW) 2,931 5.7 -10.5°
Sets 18:08:25 0° 334° (NNW) 3,891 6.4 -10.9°
